Year,Month,Day,Hour,Minute,Value (Times are PST for temperature in C)
2012,08,15,00,00,14.90
2012,08,15,00,01,14.90
2012,08,15,00,02,14.90
2012,08,15,00,03,14.90
2012,08,15,00,04,14.90
2012,08,15,00,05,15.00
2012,08,15,00,06,15.00
2012,08,15,00,07,15.00
2012,08,15,00,08,15.00
2012,08,15,00,09,15.00
2012,08,15,00,10,15.00
2012,08,15,00,11,15.00
2012,08,15,00,12,15.00
2012,08,15,00,13,15.00
2012,08,15,00,14,15.00
2012,08,15,00,15,15.00
2012,08,15,00,16,15.00
2012,08,15,00,17,15.00
2012,08,15,00,18,15.00
2012,08,15,00,19,15.00
2012,08,15,00,20,15.00
2012,08,15,00,21,15.10
2012,08,15,00,22,15.10
2012,08,15,00,23,15.10
2012,08,15,00,24,15.10
2012,08,15,00,25,15.20
2012,08,15,00,26,15.20
2012,08,15,00,27,15.20
2012,08,15,00,28,15.20
2012,08,15,00,29,15.20
2012,08,15,00,30,15.20
2012,08,15,00,31,15.20
2012,08,15,00,32,15.20
2012,08,15,00,33,15.20
2012,08,15,00,34,15.20
2012,08,15,00,35,15.20
2012,08,15,00,36,15.20
2012,08,15,00,37,15.20
2012,08,15,00,38,15.20
2012,08,15,00,39,15.20
2012,08,15,00,40,15.10
2012,08,15,00,41,15.10
2012,08,15,00,42,15.10
2012,08,15,00,43,15.10
2012,08,15,00,44,15.10
2012,08,15,00,45,15.10
2012,08,15,00,46,15.10
2012,08,15,00,47,15.10
2012,08,15,00,48,15.20
2012,08,15,00,49,15.20
2012,08,15,00,50,15.20
2012,08,15,00,51,15.20
2012,08,15,00,52,15.20
2012,08,15,00,53,15.20
2012,08,15,00,54,15.20
2012,08,15,00,55,15.20
2012,08,15,00,56,15.20
2012,08,15,00,57,15.20
2012,08,15,00,58,15.20
2012,08,15,00,59,15.20
2012,08,15,01,00,15.20
2012,08,15,01,01,15.20
2012,08,15,01,02,15.20
2012,08,15,01,03,15.30
2012,08,15,01,04,15.30
2012,08,15,01,05,15.30
2012,08,15,01,06,15.30
2012,08,15,01,07,15.30
2012,08,15,01,08,15.20
2012,08,15,01,09,15.20
2012,08,15,01,10,15.20
2012,08,15,01,11,15.20
2012,08,15,01,12,15.20
2012,08,15,01,13,15.20
2012,08,15,01,14,15.20
2012,08,15,01,15,15.20
2012,08,15,01,16,15.20
2012,08,15,01,17,15.10
2012,08,15,01,18,15.10
2012,08,15,01,19,15.10
2012,08,15,01,20,15.10
2012,08,15,01,21,15.10
2012,08,15,01,22,15.10
2012,08,15,01,23,15.10
2012,08,15,01,24,15.10
2012,08,15,01,25,15.00
2012,08,15,01,26,15.00
2012,08,15,01,27,15.00
2012,08,15,01,28,15.00
2012,08,15,01,29,14.90
2012,08,15,01,30,14.90
2012,08,15,01,31,14.90
2012,08,15,01,32,14.90
2012,08,15,01,33,14.80
2012,08,15,01,34,14.80
2012,08,15,01,35,14.80
2012,08,15,01,36,14.80
2012,08,15,01,37,14.80
2012,08,15,01,38,14.80
2012,08,15,01,39,14.80
2012,08,15,01,40,14.70
2012,08,15,01,41,14.70
2012,08,15,01,42,14.70
2012,08,15,01,43,14.70
2012,08,15,01,44,14.60
2012,08,15,01,45,14.60
2012,08,15,01,46,14.60
2012,08,15,01,47,14.60
2012,08,15,01,48,14.60
2012,08,15,01,49,14.50
2012,08,15,01,50,14.50
2012,08,15,01,51,14.50
2012,08,15,01,52,14.50
2012,08,15,01,53,14.40
2012,08,15,01,54,14.40
2012,08,15,01,55,14.40
2012,08,15,01,56,14.40
2012,08,15,01,57,14.40
2012,08,15,01,58,14.40
2012,08,15,01,59,14.40
2012,08,15,02,00,14.40
2012,08,15,02,01,14.40
2012,08,15,02,02,14.40
2012,08,15,02,03,14.40
2012,08,15,02,04,14.40
2012,08,15,02,05,14.40
2012,08,15,02,06,14.40
2012,08,15,02,07,14.40
2012,08,15,02,08,14.30
2012,08,15,02,09,14.30
2012,08,15,02,10,14.30
2012,08,15,02,11,14.30
2012,08,15,02,12,14.30
2012,08,15,02,13,14.30
2012,08,15,02,14,14.30
2012,08,15,02,15,14.30
2012,08,15,02,16,14.30
2012,08,15,02,17,14.30
2012,08,15,02,18,14.30
2012,08,15,02,19,14.20
2012,08,15,02,20,14.20
2012,08,15,02,21,14.20
2012,08,15,02,22,14.20
2012,08,15,02,23,14.20
2012,08,15,02,24,14.20
2012,08,15,02,25,14.20
2012,08,15,02,26,14.20
2012,08,15,02,27,14.20
2012,08,15,02,28,14.20
2012,08,15,02,29,14.20
2012,08,15,02,30,14.20
2012,08,15,02,31,14.20
2012,08,15,02,32,14.20
2012,08,15,02,33,14.20
2012,08,15,02,34,14.20
2012,08,15,02,35,14.20
2012,08,15,02,36,14.20
2012,08,15,02,37,14.20
2012,08,15,02,38,14.20
2012,08,15,02,39,14.20
2012,08,15,02,40,14.20
2012,08,15,02,41,14.20
2012,08,15,02,42,14.20
2012,08,15,02,43,14.20
2012,08,15,02,44,14.20
2012,08,15,02,45,14.20
2012,08,15,02,46,14.20
2012,08,15,02,47,14.20
2012,08,15,02,48,14.20
2012,08,15,02,49,14.20
2012,08,15,02,50,14.20
2012,08,15,02,51,14.20
2012,08,15,02,52,14.20
2012,08,15,02,53,14.20
2012,08,15,02,54,14.20
2012,08,15,02,55,14.20
2012,08,15,02,56,14.20
2012,08,15,02,57,14.20
2012,08,15,02,58,14.20
2012,08,15,02,59,14.20
2012,08,15,03,00,14.20
2012,08,15,03,01,14.20
2012,08,15,03,02,14.20
2012,08,15,03,03,14.20
2012,08,15,03,04,14.20
2012,08,15,03,05,14.20
2012,08,15,03,06,14.20
2012,08,15,03,07,14.20
2012,08,15,03,08,14.20
2012,08,15,03,09,14.20
2012,08,15,03,10,14.20
2012,08,15,03,11,14.20
2012,08,15,03,12,14.20
2012,08,15,03,13,14.20
2012,08,15,03,14,14.20
2012,08,15,03,15,14.20
2012,08,15,03,16,14.20
2012,08,15,03,17,14.20
2012,08,15,03,18,14.20
2012,08,15,03,19,14.20
2012,08,15,03,20,14.20
2012,08,15,03,21,14.20
2012,08,15,03,22,14.10
2012,08,15,03,23,14.10
2012,08,15,03,24,14.10
2012,08,15,03,25,14.10
2012,08,15,03,26,14.10
2012,08,15,03,27,14.10
2012,08,15,03,28,14.10
2012,08,15,03,29,14.10
2012,08,15,03,30,14.10
2012,08,15,03,31,14.10
2012,08,15,03,32,14.10
2012,08,15,03,33,14.10
2012,08,15,03,34,14.10
2012,08,15,03,35,14.10
2012,08,15,03,36,14.10
2012,08,15,03,37,14.10
2012,08,15,03,38,14.10
2012,08,15,03,39,14.10
2012,08,15,03,40,14.20
2012,08,15,03,41,14.20
2012,08,15,03,42,14.20
2012,08,15,03,43,14.20
2012,08,15,03,44,14.10
2012,08,15,03,45,14.10
2012,08,15,03,46,14.10
2012,08,15,03,47,14.10
2012,08,15,03,48,14.10
2012,08,15,03,49,14.10
2012,08,15,03,50,14.10
2012,08,15,03,51,14.10
2012,08,15,03,52,14.20
2012,08,15,03,53,14.20
2012,08,15,03,54,14.10
2012,08,15,03,55,14.10
2012,08,15,03,56,14.10
2012,08,15,03,57,14.10
2012,08,15,03,58,14.10
2012,08,15,03,59,14.10
2012,08,15,04,00,14.10
2012,08,15,04,01,14.10
2012,08,15,04,02,14.10
2012,08,15,04,03,14.10
2012,08,15,04,04,14.10
2012,08,15,04,05,14.20
2012,08,15,04,06,14.20
2012,08,15,04,07,14.20
2012,08,15,04,08,14.10
2012,08,15,04,09,14.10
2012,08,15,04,10,14.10
2012,08,15,04,11,14.10
2012,08,15,04,12,14.20
2012,08,15,04,13,14.20
2012,08,15,04,14,14.10
2012,08,15,04,15,14.10
2012,08,15,04,16,14.10
2012,08,15,04,17,14.10
2012,08,15,04,18,14.10
2012,08,15,04,19,14.10
2012,08,15,04,20,14.10
2012,08,15,04,21,14.10
2012,08,15,04,22,14.10
2012,08,15,04,23,14.10
2012,08,15,04,24,14.10
2012,08,15,04,25,14.10
2012,08,15,04,26,14.10
2012,08,15,04,27,14.00
2012,08,15,04,28,14.00
2012,08,15,04,29,14.00
2012,08,15,04,30,14.00
2012,08,15,04,31,14.00
2012,08,15,04,32,14.00
2012,08,15,04,33,14.00
2012,08,15,04,34,14.00
2012,08,15,04,35,14.00
2012,08,15,04,36,14.00
2012,08,15,04,37,14.00
2012,08,15,04,38,14.10
2012,08,15,04,39,14.00
2012,08,15,04,40,14.00
2012,08,15,04,41,14.00
2012,08,15,04,42,13.90
2012,08,15,04,43,13.90
2012,08,15,04,44,13.90
2012,08,15,04,45,13.80
2012,08,15,04,46,13.80
2012,08,15,04,47,13.70
2012,08,15,04,48,13.70
2012,08,15,04,49,13.70
2012,08,15,04,50,13.70
2012,08,15,04,51,13.60
2012,08,15,04,52,13.60
2012,08,15,04,53,13.60
2012,08,15,04,54,13.60
2012,08,15,04,55,13.60
2012,08,15,04,56,13.50
2012,08,15,04,57,13.50
2012,08,15,04,58,13.50
2012,08,15,04,59,13.50
2012,08,15,05,00,13.50
2012,08,15,05,01,13.50
2012,08,15,05,02,13.50
2012,08,15,05,03,13.50
2012,08,15,05,04,13.60
2012,08,15,05,05,13.60
2012,08,15,05,06,13.60
2012,08,15,05,07,13.70
2012,08,15,05,08,13.70
2012,08,15,05,09,13.70
2012,08,15,05,10,13.70
2012,08,15,05,11,13.70
2012,08,15,05,12,13.70
2012,08,15,05,13,13.80
2012,08,15,05,14,13.80
2012,08,15,05,15,13.80
2012,08,15,05,16,13.80
2012,08,15,05,17,13.80
2012,08,15,05,18,13.70
2012,08,15,05,19,13.70
2012,08,15,05,20,13.70
2012,08,15,05,21,13.70
2012,08,15,05,22,13.70
2012,08,15,05,23,13.70
2012,08,15,05,24,13.70
2012,08,15,05,25,13.70
2012,08,15,05,26,13.70
2012,08,15,05,27,13.70
2012,08,15,05,28,13.70
2012,08,15,05,29,13.70
2012,08,15,05,30,13.70
2012,08,15,05,31,13.70
2012,08,15,05,32,13.70
2012,08,15,05,33,13.60
2012,08,15,05,34,13.60
2012,08,15,05,35,13.60
2012,08,15,05,36,13.60
2012,08,15,05,37,13.60
2012,08,15,05,38,13.60
2012,08,15,05,39,13.70
2012,08,15,05,40,13.70
2012,08,15,05,41,13.70
2012,08,15,05,42,13.70
2012,08,15,05,43,13.70
2012,08,15,05,44,13.80
2012,08,15,05,45,13.80
2012,08,15,05,46,13.80
2012,08,15,05,47,13.90
2012,08,15,05,48,13.90
2012,08,15,05,49,13.90
2012,08,15,05,50,13.90
2012,08,15,05,51,13.90
2012,08,15,05,52,13.90
2012,08,15,05,53,13.90
2012,08,15,05,54,13.90
2012,08,15,05,55,13.90
2012,08,15,05,56,13.90
2012,08,15,05,57,13.90
2012,08,15,05,58,13.90
2012,08,15,05,59,13.90
2012,08,15,06,00,13.90
2012,08,15,06,01,13.90
2012,08,15,06,02,13.90
2012,08,15,06,03,13.90
2012,08,15,06,04,13.90
2012,08,15,06,05,13.90
2012,08,15,06,06,13.90
2012,08,15,06,07,13.90
2012,08,15,06,08,13.90
2012,08,15,06,09,14.00
2012,08,15,06,10,14.00
2012,08,15,06,11,14.00
2012,08,15,06,12,14.00
2012,08,15,06,13,14.00
2012,08,15,06,14,14.00
2012,08,15,06,15,14.10
2012,08,15,06,16,14.10
2012,08,15,06,17,14.10
2012,08,15,06,18,14.10
2012,08,15,06,19,14.00
2012,08,15,06,20,14.00
2012,08,15,06,21,14.00
2012,08,15,06,22,14.00
2012,08,15,06,23,14.00
2012,08,15,06,24,14.00
2012,08,15,06,25,14.10
2012,08,15,06,26,14.10
2012,08,15,06,27,14.10
2012,08,15,06,28,14.00
2012,08,15,06,29,14.00
2012,08,15,06,30,14.00
2012,08,15,06,31,14.00
2012,08,15,06,32,14.00
2012,08,15,06,33,14.00
2012,08,15,06,34,14.00
2012,08,15,06,35,14.00
2012,08,15,06,36,14.00
2012,08,15,06,37,13.90
2012,08,15,06,38,13.90
2012,08,15,06,39,13.90
2012,08,15,06,40,14.00
2012,08,15,06,41,14.00
2012,08,15,06,42,14.00
2012,08,15,06,43,14.00
2012,08,15,06,44,14.10
2012,08,15,06,45,14.10
2012,08,15,06,46,14.20
2012,08,15,06,47,14.20
2012,08,15,06,48,14.20
2012,08,15,06,49,14.20
2012,08,15,06,50,14.30
2012,08,15,06,51,14.30
2012,08,15,06,52,14.40
2012,08,15,06,53,14.50
2012,08,15,06,54,14.50
2012,08,15,06,55,14.50
2012,08,15,06,56,14.60
2012,08,15,06,57,14.60
2012,08,15,06,58,14.60
2012,08,15,06,59,14.60
2012,08,15,07,00,14.60
2012,08,15,07,01,14.60
2012,08,15,07,02,14.70
2012,08,15,07,03,14.70
2012,08,15,07,04,14.70
2012,08,15,07,05,14.70
2012,08,15,07,06,14.80
2012,08,15,07,07,14.80
2012,08,15,07,08,14.80
2012,08,15,07,09,14.90
2012,08,15,07,10,14.90
2012,08,15,07,11,14.90
2012,08,15,07,12,15.00
2012,08,15,07,13,15.00
2012,08,15,07,14,15.10
2012,08,15,07,15,15.10
2012,08,15,07,16,15.20
2012,08,15,07,17,15.20
2012,08,15,07,18,15.30
2012,08,15,07,19,15.30
2012,08,15,07,20,15.40
2012,08,15,07,21,15.40
2012,08,15,07,22,15.50
2012,08,15,07,23,15.50
2012,08,15,07,24,15.60
2012,08,15,07,25,15.70
2012,08,15,07,26,15.70
2012,08,15,07,27,15.80
2012,08,15,07,28,15.80
2012,08,15,07,29,15.80
2012,08,15,07,30,15.90
2012,08,15,07,31,16.00
2012,08,15,07,32,16.10
2012,08,15,07,33,16.10
2012,08,15,07,34,16.10
2012,08,15,07,35,16.20
2012,08,15,07,36,16.20
2012,08,15,07,37,16.30
2012,08,15,07,38,16.30
2012,08,15,07,39,16.40
2012,08,15,07,40,16.40
2012,08,15,07,41,16.50
2012,08,15,07,42,16.60
2012,08,15,07,43,16.70
2012,08,15,07,44,16.70
2012,08,15,07,45,16.70
2012,08,15,07,46,16.80
2012,08,15,07,47,16.90
2012,08,15,07,48,17.00
2012,08,15,07,49,17.00
2012,08,15,07,50,17.10
2012,08,15,07,51,17.20
2012,08,15,07,52,17.30
2012,08,15,07,53,17.30
2012,08,15,07,54,17.30
2012,08,15,07,55,17.40
2012,08,15,07,56,17.50
2012,08,15,07,57,17.50
2012,08,15,07,58,17.60
2012,08,15,07,59,17.70
2012,08,15,08,00,17.80
2012,08,15,08,01,17.80
2012,08,15,08,02,17.90
2012,08,15,08,03,17.90
2012,08,15,08,04,18.00
2012,08,15,08,05,18.10
2012,08,15,08,06,18.20
2012,08,15,08,07,18.20
2012,08,15,08,08,18.30
2012,08,15,08,09,18.30
2012,08,15,08,10,18.40
2012,08,15,08,11,18.50
2012,08,15,08,12,18.60
2012,08,15,08,13,18.70
2012,08,15,08,14,18.80
2012,08,15,08,15,18.90
2012,08,15,08,16,18.90
2012,08,15,08,17,18.90
2012,08,15,08,18,19.00
2012,08,15,08,19,19.10
2012,08,15,08,20,19.10
2012,08,15,08,21,19.20
2012,08,15,08,22,19.30
2012,08,15,08,23,19.30
2012,08,15,08,24,19.40
2012,08,15,08,25,19.50
2012,08,15,08,26,19.50
2012,08,15,08,27,19.60
2012,08,15,08,28,19.60
2012,08,15,08,29,19.70
2012,08,15,08,30,19.70
2012,08,15,08,31,19.80
2012,08,15,08,32,19.80
2012,08,15,08,33,19.90
2012,08,15,08,34,19.90
2012,08,15,08,35,20.00
2012,08,15,08,36,20.10
2012,08,15,08,37,20.20
2012,08,15,08,38,20.20
2012,08,15,08,39,20.20
2012,08,15,08,40,20.30
2012,08,15,08,41,20.30
2012,08,15,08,42,20.40
2012,08,15,08,43,20.50
2012,08,15,08,44,20.50
2012,08,15,08,45,20.60
2012,08,15,08,46,20.60
2012,08,15,08,47,20.70
2012,08,15,08,48,20.70
2012,08,15,08,49,20.80
2012,08,15,08,50,20.80
2012,08,15,08,51,20.90
2012,08,15,08,52,21.00
2012,08,15,08,53,21.00
2012,08,15,08,54,21.10
2012,08,15,08,55,21.10
2012,08,15,08,56,21.20
2012,08,15,08,57,21.20
2012,08,15,08,58,21.30
2012,08,15,08,59,21.30
2012,08,15,09,00,21.30
2012,08,15,09,01,21.40
2012,08,15,09,02,21.40
2012,08,15,09,03,21.40
2012,08,15,09,04,21.50
2012,08,15,09,05,21.60
2012,08,15,09,06,21.60
2012,08,15,09,07,21.70
2012,08,15,09,08,21.90
2012,08,15,09,09,22.00
2012,08,15,09,10,22.10
2012,08,15,09,11,22.20
2012,08,15,09,12,22.30
2012,08,15,09,13,22.40
2012,08,15,09,14,22.50
2012,08,15,09,15,22.60
2012,08,15,09,16,22.70
2012,08,15,09,17,22.90
2012,08,15,09,18,22.90
2012,08,15,09,19,22.90
2012,08,15,09,20,22.90
2012,08,15,09,21,23.00
2012,08,15,09,22,23.10
2012,08,15,09,23,23.10
2012,08,15,09,24,23.10
2012,08,15,09,25,23.10
2012,08,15,09,26,23.10
2012,08,15,09,27,23.10
2012,08,15,09,28,23.20
2012,08,15,09,29,23.20
2012,08,15,09,30,23.20
2012,08,15,09,31,23.20
2012,08,15,09,32,23.20
2012,08,15,09,33,23.20
2012,08,15,09,34,23.30
2012,08,15,09,35,23.30
2012,08,15,09,36,23.30
2012,08,15,09,37,23.30
2012,08,15,09,38,23.30
2012,08,15,09,39,23.30
2012,08,15,09,40,23.30
2012,08,15,09,41,23.40
2012,08,15,09,42,23.40
2012,08,15,09,43,23.40
2012,08,15,09,44,23.40
2012,08,15,09,45,23.40
2012,08,15,09,46,23.40
2012,08,15,09,47,23.50
2012,08,15,09,48,23.60
2012,08,15,09,49,23.60
2012,08,15,09,50,23.60
2012,08,15,09,51,23.70
2012,08,15,09,52,23.70
2012,08,15,09,53,23.70
2012,08,15,09,54,23.70
2012,08,15,09,55,23.70
2012,08,15,09,56,23.70
2012,08,15,09,57,23.70
2012,08,15,09,58,23.70
2012,08,15,09,59,23.70
2012,08,15,10,00,23.70
2012,08,15,10,01,23.70
2012,08,15,10,02,23.80
2012,08,15,10,03,23.90
2012,08,15,10,04,24.00
2012,08,15,10,05,24.10
2012,08,15,10,06,24.10
2012,08,15,10,07,24.10
2012,08,15,10,08,24.10
2012,08,15,10,09,24.20
2012,08,15,10,10,24.20
2012,08,15,10,11,24.30
2012,08,15,10,12,24.30
2012,08,15,10,13,24.30
2012,08,15,10,14,24.40
2012,08,15,10,15,24.40
2012,08,15,10,16,24.40
2012,08,15,10,17,24.50
2012,08,15,10,18,24.50
2012,08,15,10,19,24.60
2012,08,15,10,20,24.60
2012,08,15,10,21,24.60
2012,08,15,10,22,24.70
2012,08,15,10,23,24.70
2012,08,15,10,24,24.70
2012,08,15,10,25,24.70
2012,08,15,10,26,24.70
2012,08,15,10,27,24.80
2012,08,15,10,28,24.80
2012,08,15,10,29,24.80
2012,08,15,10,30,24.80
2012,08,15,10,31,24.80
2012,08,15,10,32,24.80
2012,08,15,10,33,24.80
2012,08,15,10,34,24.80
2012,08,15,10,35,24.80
2012,08,15,10,36,24.80
2012,08,15,10,37,24.90
2012,08,15,10,38,24.90
2012,08,15,10,39,24.90
2012,08,15,10,40,24.90
2012,08,15,10,41,25.00
2012,08,15,10,42,25.00
2012,08,15,10,43,25.00
2012,08,15,10,44,25.00
2012,08,15,10,45,25.10
2012,08,15,10,46,25.20
2012,08,15,10,47,25.20
2012,08,15,10,48,25.30
2012,08,15,10,49,25.30
2012,08,15,10,50,25.30
2012,08,15,10,51,25.30
2012,08,15,10,52,25.30
2012,08,15,10,53,25.40
2012,08,15,10,54,25.40
2012,08,15,10,55,25.40
2012,08,15,10,56,25.50
2012,08,15,10,57,25.50
2012,08,15,10,58,25.60
2012,08,15,10,59,25.70
2012,08,15,11,00,25.70
2012,08,15,11,01,25.80
2012,08,15,11,02,25.90
2012,08,15,11,03,25.90
2012,08,15,11,04,25.90
2012,08,15,11,05,25.80
2012,08,15,11,06,25.70
2012,08,15,11,07,25.70
2012,08,15,11,08,25.70
2012,08,15,11,09,25.80
2012,08,15,11,10,25.90
2012,08,15,11,11,26.00
2012,08,15,11,12,26.00
2012,08,15,11,13,26.10
2012,08,15,11,14,26.10
2012,08,15,11,15,26.10
2012,08,15,11,16,26.00
2012,08,15,11,17,25.90
2012,08,15,11,18,25.80
2012,08,15,11,19,25.90
2012,08,15,11,20,25.90
2012,08,15,11,21,26.00
2012,08,15,11,22,26.10
2012,08,15,11,23,26.20
2012,08,15,11,24,26.20
2012,08,15,11,25,26.30
2012,08,15,11,26,26.30
2012,08,15,11,27,26.30
2012,08,15,11,28,26.30
2012,08,15,11,29,26.30
2012,08,15,11,30,26.30
2012,08,15,11,31,26.30
2012,08,15,11,32,26.40
2012,08,15,11,33,26.50
2012,08,15,11,34,26.60
2012,08,15,11,35,26.60
2012,08,15,11,36,26.50
2012,08,15,11,37,26.40
2012,08,15,11,38,26.50
2012,08,15,11,39,26.60
2012,08,15,11,40,26.60
2012,08,15,11,41,26.60
2012,08,15,11,42,26.60
2012,08,15,11,43,26.60
2012,08,15,11,44,26.60
2012,08,15,11,45,26.60
2012,08,15,11,46,26.60
2012,08,15,11,47,26.70
2012,08,15,11,48,26.60
2012,08,15,11,49,26.60
2012,08,15,11,50,26.50
2012,08,15,11,51,26.30
2012,08,15,11,52,26.30
2012,08,15,11,53,26.40
2012,08,15,11,54,26.40
2012,08,15,11,55,26.50
2012,08,15,11,56,26.60
2012,08,15,11,57,26.70
2012,08,15,11,58,26.80
2012,08,15,11,59,26.80
2012,08,15,12,00,26.80
2012,08,15,12,01,26.80
2012,08,15,12,02,26.70
2012,08,15,12,03,26.70
2012,08,15,12,04,26.70
2012,08,15,12,05,26.70
2012,08,15,12,06,26.70
2012,08,15,12,07,26.70
2012,08,15,12,08,26.60
2012,08,15,12,09,26.60
2012,08,15,12,10,26.60
2012,08,15,12,11,26.60
2012,08,15,12,12,26.70
2012,08,15,12,13,26.70
2012,08,15,12,14,26.70
2012,08,15,12,15,26.80
2012,08,15,12,16,26.80
2012,08,15,12,17,26.90
2012,08,15,12,18,26.90
2012,08,15,12,19,27.00
2012,08,15,12,20,27.10
2012,08,15,12,21,27.10
2012,08,15,12,22,27.20
2012,08,15,12,23,27.20
2012,08,15,12,24,27.20
2012,08,15,12,25,27.20
2012,08,15,12,26,27.20
2012,08,15,12,27,27.20
2012,08,15,12,28,27.20
2012,08,15,12,29,27.20
2012,08,15,12,30,27.30
2012,08,15,12,31,27.30
2012,08,15,12,32,27.30
2012,08,15,12,33,27.30
2012,08,15,12,34,27.30
2012,08,15,12,35,27.30
2012,08,15,12,36,27.20
2012,08,15,12,37,27.10
2012,08,15,12,38,27.10
2012,08,15,12,39,27.20
2012,08,15,12,40,27.10
2012,08,15,12,41,27.10
2012,08,15,12,42,27.10
2012,08,15,12,43,27.10
2012,08,15,12,44,27.20
2012,08,15,12,45,27.20
2012,08,15,12,46,27.20
2012,08,15,12,47,27.30
2012,08,15,12,48,27.30
2012,08,15,12,49,27.30
2012,08,15,12,50,27.30
2012,08,15,12,51,27.30
2012,08,15,12,52,27.40
2012,08,15,23,43,20.40
2012,08,15,23,44,20.30
2012,08,15,23,45,20.30
2012,08,15,23,46,20.30
2012,08,15,23,47,20.20
2012,08,15,23,48,20.20
2012,08,15,23,49,20.20
2012,08,15,23,50,20.20
2012,08,15,23,51,20.10
2012,08,15,23,52,20.10
2012,08,15,23,53,20.00
2012,08,15,23,54,19.90
2012,08,15,23,55,19.90
2012,08,15,23,56,19.90
2012,08,15,23,57,19.90
2012,08,15,23,58,19.80
2012,08,15,23,59,19.80
